Location: Chippewa Lake
(41.0698°N, 81.9010°W)
Time: 22:06:57
(UTC+00:00)

IGS 5A - Pass Details

Date: 09 May 2021
Orbit: 583 x 588 km, 97.6° (Epoch: 06 May)

Event Time Altitude Azimuth Distance (km) Brightness Sun altitude
Exits shadow 02:30:17 26° 193° (SSW) 1,159 4.6 -19.0°
Maximum altitude 02:32:23 54° 260° (W) 715 4.0 -19.3°
Drops below altitude 10° 02:36:27 10° 338° (NNW) 1,912 7.1 -19.8°
Sets 02:38:40 0° 343° (NNW) 2,818 8.1 -20.1°
